This is the latest recevied weather packets stored in our database for station/object SP8MDH-4. If no packets are shown the sender has not sent any weather packets the latest 10 day(s).
| Time | Temp. | Humidity | Pressure | Rain* | Wind** | Luminosity | Snow |
|---|---|---|---|---|---|---|---|
| 1777784091 | 22.78° C | 26% | 1020.5 hPa | - | - | - | - |
| 1777782591 | 22.78° C | 26% | 1020.4 hPa | - | - | - | - |
| 1777781091 | 22.78° C | 25% | 1020.4 hPa | - | - | - | - |
| 1777779591 | 22.78° C | 25% | 1020.5 hPa | - | - | - | - |
| 1777778091 | 22.78° C | 26% | 1020.4 hPa | - | - | - | - |
| 1777776591 | 22.78° C | 26% | 1020.1 hPa | - | - | - | - |
| 1777775091 | 22.78° C | 26% | 1020.3 hPa | - | - | - | - |
| 1777770591 | 23.33° C | 26% | 1020.4 hPa | - | - | - | - |
| 1777760090 | 23.89° C | 26% | 1020.5 hPa | - | - | - | - |
| 1777758590 | 23.89° C | 26% | 1020.6 hPa | - | - | - | - |
| 1777757090 | 23.89° C | 26% | 1020.6 hPa | - | - | - | - |
| 1777749589 | 24.44° C | 26% | 1021.1 hPa | - | - | - | - |
| 1777749306 | 24.44° C | 27% | 1021.1 hPa | - | - | - | - |
| 1777747806 | 25° C | 26% | 1021.1 hPa | - | - | - | - |
| 1777743306 | 25.56° C | 26% | 1020.9 hPa | - | - | - | - |
| 1777738806 | 25.56° C | 27% | 1021.1 hPa | - | - | - | - |
| 1777737306 | 25.56° C | 27% | 1021.3 hPa | - | - | - | - |
| 1777735806 | 25° C | 26% | 1021.5 hPa | - | - | - | - |
| 1777734306 | 25° C | 27% | 1021.9 hPa | - | - | - | - |
| 1777732806 | 25° C | 27% | 1022 hPa | - | - | - | - |
| 1777731306 | 25° C | 27% | 1022.3 hPa | - | - | - | - |
| 1777728305 | 24.44° C | 28% | 1022.9 hPa | - | - | - | - |
| 1777726805 | 24.44° C | 28% | 1023.3 hPa | - | - | - | - |
| 1777723805 | 23.89° C | 28% | 1024 hPa | - | - | - | - |
| 1777720805 | 23.33° C | 28% | 1024.6 hPa | - | - | - | - |
* Rain since midnight (hover to see other rain measurements)
** Current wind speed in m/s (hover to see current wind gust speed)